Skip Page Navigation
NASA JPL Caltech
NASA Logo - Jet Propulsion Laboratory + View the NASA Portal
+ Center for Near-Earth Object Studies
JPL Home Earth Solar System Stars & Galaxies Technology
JPL Solar System Dynamics
BODIES ORBITS EPHEMERIDES TOOLS PHYSICAL DATA DISCOVERY FAQ SITE MAP
JPL Small-Body Database Browser
Search: [ help ]  
180993 (2005 NQ20)
Classification: Main-belt Asteroid          SPK-ID: 2180993
Ephemeris | Orbit Diagram | Orbital Elements | Mission Design | Physical Parameters | Discovery Circumstances | Close-Approach Data ]

[ hide orbit diagram ]

For accurate long-term ephemerides, please instead use our Horizons system.This orbit viewer was implemented using two-body methods, and hence should not be used for determining accurate long-term trajectories (over several years or decades) or planetary encounter circumstances.


Orbital Elements at Epoch 2459200.5 (2020-Dec-17.0) TDB
Reference: JPL 17 (heliocentric ecliptic J2000)
 Element Value Uncertainty (1-sigma)   Units 
e .2203099537821437 5.3139e-08  
a 2.469300157251246 1.6151e-08 au
q 1.925288753732984 1.3193e-07 au
i 4.660605045848338 8.168e-06 deg
node 334.2673285242496 4.988e-05 deg
peri 319.4288879319001 5.2855e-05 deg
M 341.8264017859722 1.7637e-05 deg
tp 2459272.048029032330
(2021-Feb-26.54802903)
6.9729e-05 TDB
period 1417.291729920458
3.88
1.3905e-05
3.807e-08
d
yr
n .2540055744347031 2.492e-09 deg/d
Q 3.013311560769509 1.9709e-08 au
  Orbit Determination Parameters
   # obs. used (total)      327  
   data-arc span      8892 days (24.34 yr)  
   first obs. used      1996-01-12  
   last obs. used      2020-05-17  
   planetary ephem.      DE441  
   SB-pert. ephem.      SB441-N16  
   condition code      0  
   norm. resid. RMS      .53742  
   source      ORB  
   producer      Otto Matic  
   solution date      2021-Apr-13 21:28:47  

Additional Information
 Earth MOID = .910243 au 
 Jupiter MOID = 2.20567 au 
 T_jup = 3.447 
[ hide covariance matrix ]
Orbital Elements at Epoch 2457439.5 (2016-Feb-21.0) TDB
Reference: JPL 17 (heliocentric ecliptic J2000)
 Element Value Uncertainty (1-sigma)   Units 
e .2198157217837587 5.3088e-08  
q 1.927797678646379 1.3151e-07 au
tp 2457853.641248008603
(2017-Apr-10.14124801)
6.517e-05 TDB
node 334.312809928746 4.9841e-05 deg
peri 319.1393906161384 5.2832e-05 deg
i 4.66152230971536 8.1678e-06 deg
  Orbit Determination Parameters
   # obs. used (total)      327  
   data-arc span      8892 days (24.34 yr)  
   first obs. used      1996-01-12  
   last obs. used      2020-05-17  
   planetary ephem.      DE441  
   SB-pert. ephem.      SB441-N16  
   condition code      0  
   norm. resid. RMS      .53742  
   source      ORB  
   producer      Otto Matic  
   solution date      2021-Apr-13 21:28:47  

Additional Information
 Jupiter MOID = 2.20567 au 
 T_jup = 3.447 
Orbit Covariance (6×6)
  e q tp node peri i
e 2.818388167744856E-15 -6.94857539610681E-15 2.351232502009847E-12 1.624618914836529E-15 6.273963141384894E-13 2.678281819280405E-15
q -6.94857539610681E-15 1.729531397546572E-14 -5.585444667893703E-12 -4.985193209081945E-15 -1.504344834752437E-12 -6.249347000492356E-15
tp 2.351232502009847E-12 -5.585444667893703E-12 4.247117194359135E-9 -4.446866548184754E-12 1.149414592478754E-9 2.752704371329612E-12
node 1.624618914836529E-15 -4.985193209081945E-15 -4.446866548184754E-12 2.484112847533919E-9 -2.476405169174746E-9 1.372121334242321E-10
peri 6.273963141384894E-13 -1.504344834752437E-12 1.149414592478754E-9 -2.476405169174746E-9 2.791235835852202E-9 -1.360853498736852E-10
i 2.678281819280405E-15 -6.249347000492356E-15 2.752704371329612E-12 1.372121334242321E-10 -1.360853498736852E-10 6.671266169617769E-11

Ephemeris | Orbit Diagram | Orbital Elements | Mission Design | Physical Parameters | Discovery Circumstances | Close-Approach Data ]

Physical Parameter Table
Parameter Symbol Value Units Sigma Reference Notes
absolute magnitude H 16.31   n/a E2021B55  

180993 (2005 NQ20)          Discovered 2005-Jul-02 by Broughton, J. at Reedy Creek
Reference: 20080321/Numbers.arcLast Updated: 2008-03-26

[ show close-approach data ]
Alternate Designations
 2005 NQ20 = 1978 NB5 
Ephemeris | Orbit Diagram | Orbital Elements | Mission Design | Physical Parameters | Discovery Circumstances | Close-Approach Data ]
ABOUT SSD CREDITS/AWARDS PRIVACY/COPYRIGHT GLOSSARY LINKS
FirstGov 2021-Jun-17 22:10 UT
(server date/time)  
NASA Home Page
Site Manager:   Ryan S. Park
Webmaster  Alan B. Chamberlin